Flag for Canada Weather past 2 weeks in Fort Smith, Northwest Territories, Canada

Now
14 °F

Clear.


Feels Like: 5 °F
Forecast: 8 / 23 °F
Wind: 6 mph from Northeast

Location: Fort Smith

Current Time: Apr 1, 2015 at 4:08:39 AM

Latest Report: Apr 1, 2015 at 3:00 AM


Visibility: 15 mi

Pressure: 29.93 "Hg

Humidity: 67%

Dew point: 5 °F

Location of Fort SmithLocation

Historic Weather in Fort Smith — Graph

°F

Fort Smith temperature yesterday

Maximum temperature yesterday: 37 °F (at 3:00 PM)
Minimum temperature yesterday: 23 °F (at 8:00 AM)
Average temperature yesterday: 30 °F

Past Weeks' High & Low Weather Summary

 TemperatureHumidityPressure
High50 °F (Mar 27, 3:00 PM)93% (Mar 23, 1:00 AM)30.52 "Hg (Mar 23, 1:00 AM)
Low-15 °F (Mar 20, 7:00 AM)22% (Mar 18, 2:00 PM)29.53 "Hg (Mar 28, 2:00 AM)
Average19 °F60%30.09 "Hg
* Reported Mar 17 2:00 AM — Apr 1 2:00 AM, Fort Smith, Weather by CustomWeather, © 2015

Note: Actual official high and low records may vary slightly from our data, if they occured in-between our weather recording intervals... More about our weather records

Advertising

Fort Smith weather history for previous 24 hours

 ConditionsComfort  
Time TempWeatherWind HumidityBarometerVisibility
2:00 AM
Wed, Apr 1
16 °FClear.8 mph67%29.92 "Hg15 mi
1:00 AM18 °FClear.9 mph68%29.90 "Hg15 mi
12:00 AM21 °FClear.8 mph63%29.89 "Hg15 mi
11:00 PM
Tue, Mar 31
25 °FClear.10 mph63%29.88 "Hg15 mi
10:00 PM27 °FPassing clouds.12 mph64%29.87 "Hg15 mi
9:00 PM28 °FPassing clouds.6 mph64%29.85 "Hg15 mi
8:00 PM32 °FScattered clouds.8 mph64%29.83 "Hg15 mi
7:00 PM36 °FPassing clouds.8 mph56%29.80 "Hg15 mi
6:00 PM36 °FPartly sunny.15 mph60%29.80 "Hg15 mi
5:00 PM36 °FBroken clouds.15 mph60%29.78 "Hg15 mi
4:00 PM36 °FPartly sunny.13 mph56%29.78 "Hg15 mi
3:00 PM37 °FPartly sunny.14 mph56%29.78 "Hg15 mi
2:00 PM36 °FPartly sunny.14 mph60%29.78 "Hg15 mi
1:00 PM36 °FPartly sunny.8 mph65%29.78 "Hg15 mi
12:00 PM32 °FPartly sunny.10 mph75%29.78 "Hg15 mi
11:00 AM32 °FPartly sunny.8 mph69%29.77 "Hg15 mi
10:00 AM28 °FPartly sunny.8 mph74%29.77 "Hg15 mi
9:00 AM27 °FPartly sunny.9 mph80%29.78 "Hg15 mi
8:00 AM23 °FBroken clouds.7 mph86%29.78 "Hg15 mi
7:00 AM25 °FPartly cloudy.6 mph86%29.77 "Hg15 mi
6:00 AM27 °FPassing clouds.3 mph86%29.78 "Hg15 mi
5:00 AM27 °FPassing clouds.5 mph86%29.77 "Hg15 mi
4:00 AM27 °FPassing clouds.2 mph93%29.77 "Hg15 mi
Weather by CustomWeather, © 2015

See weather overviewHow to use our weather pages